Regional Weather Roundup
Issued by NWS

Home | Current Version | Previous Version | Text Only | Print | Product List | Glossary Off
Versions: 1 2 3 4 5 6 7 8 9 10 11 12 13 14 15 16 17 18 19 20 21 22 23 24 25 26 27 28 29 30 31 32 33 34 35 36 37 38 39 40 41 42 43 44 45 46 47 48 49 50

228
ASUS43 KDTX 230301
RWRMI
MICHIGAN HOURLY REGIONAL WEATHER ROUNDUP
NATIONAL WEATHER SERVICE DETROIT/PONTIAC MI
1000 PM EST MON JAN 22 2018

NOTE: "FAIR" INDICATES FEW OR NO CLOUDS BELOW 12,000 FEET WITH NO
SIGNIFICANT WEATHER AND/OR OBSTRUCTION TO VISIBILITY.

MIZ047>049-052>055-059>063-066>070-074>076-081>083-230400-
SOUTHEAST LOWER MICHIGAN

CITY           SKY/WX    TMP DP  RH WIND       PRES   REMARKS
ADRIAN         FAIR      45  43  93 S7        29.54F
ALMA           CLOUDY    45  45 100 SW6       29.51F FOG
ANN ARBOR      MOCLDY    44  43  96 CALM      29.53F FOG
BAD AXE        CLOUDY    44  44 100 S12       29.55S FOG
CARO           LGT RAIN  47  47 100 S8        29.53F
DETROIT CITY   CLOUDY    50  45  83 S10       29.57F
DETROIT        CLOUDY    49  45  86 SE6       29.55F
FLINT          MOCLDY    48  46  93 S7        29.55F
GROSSE ILE     CLOUDY    43  41  93 S3        29.55F
HILLSDALE      MOCLDY    45  43  93 S3        29.51F FOG
HOWELL         CLOUDY    49  47  96 S7        29.53F

CITY           SKY/WX    TMP DP  RH WIND       PRES   REMARKS
JACKSON        FAIR      47  46  97 S7        29.51F
LAMBERTVILLE   MOCLDY    50  46  85 S3        29.54F
LANSING        FAIR      46  46 100 S10       29.52F
LAPEER         LGT RAIN  47  46  99 S6        29.56F
MONROE         CLOUDY    48  45  87 S9        29.54F
PONTIAC        MOCLDY    46  46 100 SE5       29.54F FOG
PORT HOPE        N/A     41  39  93 SE7       29.53F
PORT HURON     CLOUDY    46  43  87 SE5       29.58F
TRI CITIES     CLOUDY    47  47 100 S9        29.53F FOG
MIDLAND        FOG       42  42 100 CALM      29.51F VSB 1/2
TROY           MOCLDY    49  45  87 S5        29.58F
SAGINAW HB     CLOUDY    45  45 100 S8        29.53F
$$
MIZ043>046-050>051-056>058-064>065-071>073-077>080-230400-
SOUTHWEST LOWER MICHIGAN

CITY           SKY/WX    TMP DP  RH WIND       PRES   REMARKS
BATTLE CREEK   CLOUDY    48  46  93 S7        29.50F
BENTON HARBOR  FAIR      48  45  89 SE9       29.45F
BIG RAPIDS     FOG       36  34  94 CALM      29.49F VSB 1/4
COLDWATER      FAIR      46  46 100 SE6       29.50F
HOLLAND        FAIR      43  42  97 SE8       29.46F FOG
GRAND RAPIDS   FAIR      42  41  96 S8        29.48F FOG
IONIA          FOG       41  41 100 S8        29.49F VSB<1/4
KALAMAZOO      FAIR      49  46  90 S6        29.49F
LUDINGTON      FOG       38  38 100 S5        29.47F VSB 1/4 WCI  35
MARSHALL       FAIR      47  46  97 S6        29.50F
MOUNT PLEASANT FOG       37  35  96 CALM      29.51F VSB 1/2
MUSKEGON       FOG       44  42  93 SE8       29.46F VSB 1/4
SOUTH HAVEN    FAIR      47  46  93 SE5       29.46F
$$
MIZ016>042-230400-
NORTHERN LOWER MICHIGAN

CITY           SKY/WX    TMP DP  RH WIND       PRES   REMARKS
ALPENA         LGT RAIN  36  36 100 E7        29.55F WCI  30
BEAVER ISLAND  CLOUDY    29  28  94 E9G16     29.59S FOG     WCI  21
BELLAIRE       MIX PCPN  35  34  98 NE8       29.53S WCI  28
CADILLAC       FOG       35  34  98 NE3       29.47F VSB 1/2
CHARLEVOIX     LGT SNOW  32  32 100 E7        29.57S WCI  26
FRANKFORT      CLOUDY    37  37 100 CALM      29.48F FOG
GAYLORD        FRZ RAIN  32  32 100 NE10      29.52S WCI  24
GRAYLING       CLOUDY    33  32  96 CALM      29.53S FOG
HARBOR SPRINGS LGT SNOW  30  29  99 NE9       29.57F WCI  21
HOUGHTON LAKE  CLOUDY    35  34  96 NE6       29.50F WCI  30
MANISTEE       FOG       38  37  97 E5        29.46F VSB 1/2 WCI  34
OSCODA         FOG       35  34  99 CALM      29.52F VSB 1
PELLSTON       FRZ RAIN  29  28  96 E13       29.62R WCI  19
ROGERS CITY    DRIZZLE   32  31  97 E7        29.60F WCI  25
TRAVERSE CITY  LGT RAIN  36  35  96 NE7       29.50S FOG     WCI  30
$$
MIZ007>008-015-230400-
EASTERN UPPER MICHIGAN

CITY           SKY/WX    TMP DP  RH WIND       PRES   REMARKS
KINROSS        MIX PCPN  22  20  92 NE15      29.64F WCI   9
MACKINAC ISLAN LGT SNOW  27  27 100 NE20G29   29.61F WCI  13
NEWBERRY       LGT SNOW  22  21  97 NE12      29.63F WCI  10
S. S. MARIE    CLOUDY    24  18  77 NE14G23   29.66F WCI  12
MUNISING         N/A     27  26  96 NE29      29.65F WCI  11
$$
MIZ004>006-011>014-085-230400-
CENTRAL UPPER MICHIGAN

CITY           SKY/WX    TMP DP  RH WIND       PRES   REMARKS
ESCANABA       LGT SNOW  28  27  93 N12G17    29.61S FOG     WCI  18
MENOMINEE      FLURRIES  29  27  92 NE16G23   29.59F WCI  17
SAWYER-GWINN   LGT SNOW  27  23  86 NE20G25   29.64F WCI  13
$$
MIZ001>003-009>011-084-230400-
WESTERN UPPER MICHIGAN

CITY           SKY/WX    TMP DP  RH WIND       PRES   REMARKS
IRON MOUNTAIN  FLURRIES  28  23  81 N16G22    29.61S WCI  16
HOUGHTON       SNOW      23  17  78 NE12G22   29.78F VSB 1/2 WCI  12
COPPER HARBOR    N/A     24  21  88 E22G30    29.83F WCI   9
IRONWOOD       LGT SNOW  23  21  92 NE12G20   29.76F FOG     WCI  12
$$

ABBREVIATIONS USED IN REMARKS
   TC - TEMPERATURE IN CELSIUS
  WCI - WIND CHILL INDEX
   HX - HEAT INDEX
  VSB - VISIBILITY





USA.gov is the U.S. government's official web portal to all federal, state and local government web resources and services.